sat.trackr.live / text

‹ back to catalog

STARLINK-34870

NORAD 65370 · 2025-190V

PAYLOAD ACTIVE UNKNOWN

§ Identity

Operator
Country
US
Launch date
2025-08-28
Launch site
AFETR
Launch vehicle
Mass (kg)
RCS (m²)

Purposes: comms

External: N2YO · Heavens-Above · Gunter

§ Orbital elements

Epoch: 2026-09-20T11:51:16.124832Z

Period
93.85 min
Inclination
53.1606°
Eccentricity
0.0001165
Mean motion
15.34404534 rev/d
Perigee alt
461.9 km
Apogee alt
463.5 km
Semi-major
6,840.8 km
B*
7.7250e-4
RAAN
341.7027°
Arg perigee
83.3126°
Mean anomaly
276.8009°
Rev number
5,913

§ Raw data

STARLINK-348701 65370U 25190V   26263.49393663  .00025817  00000+0  77250-3 0  99962 65370  53.1606 341.7027 0001165  83.3126 276.8009 15.34404534 59137

JSON: /api/v1/satellites/65370 · /tle

For live sub-satellite position, see the globe view (requires WebGL).

§ Visibility from observer

Set your observer location to see the next 7 days of passes ≥ 10°. The values pass through the URL so the page stays shareable.

No JS? Fill the form by hand. The geolocation button needs JavaScript.